Temperature
24 24 24 25 26 26 26 26 27 28 29 28 27 26 26 27 26 25 24 24 23 21 21 21 21 21 21 21 20 20 19 19 19 19 18 18 18 18 18 18 17 17 17 17
25 24 26 26 27 26 26 26 26 27 28 27 26 25 25 25 24 22 21 21 20 20 19 19 19 19 19 19 19 19 19 19 19 18 18 18 18 18 17 17 17 17 17 16
24 25 26 26 25 25 25 25 26 26 27 27 26 24 24 24 23 21 19 18 18 18 17 17 17 17 18 18 18 18 18 18 18 18 18 17 17 17 17 17 16 16 16 16
25 26 26 25 25 25 25 26 26 26 25 25 25 23 23 23 22 20 18 17 16 16 16 16 16 16 17 17 17 17 17 18 18 17 17 17 17 16 16 15 15 15 15 15
24 25 25 25 25 25 25 26 26 26 25 25 25 24 22 22 20 19 17 16 15 15 14 14 15 15 16 16 16 17 17 17 17 17 17 16 16 16 15 15 14 14 14 14
25 25 25 25 26 26 26 26 25 25 25 23 24 24 22 21 20 18 16 15 14 14 14 14 14 14 15 15 15 16 16 16 16 16 16 16 15 15 14 14 14 13 13 13
23 24 25 25 24 25 25 24 23 23 23 24 25 24 20 20 19 17 15 13 13 13 13 13 13 13 13 14 14 14 15 15 15 15 15 14 14 14 14 13 12 12 12 12
20 21 23 24 24 24 24 24 22 21 21 23 24 22 18 18 17 16 14 13 12 12 12 11 12 12 12 13 13 13 13 13 14 14 13 13 13 13 12 12 11 11 11 11
20 21 23 24 25 25 24 24 24 23 21 21 21 18 17 17 16 15 13 12 11 10 10 11 11 11 11 12 12 12 12 12 12 12 12 12 12 11 11 10 10 10 10 9
21 20 23 24 25 25 25 25 23 22 20 19 20 19 17 16 15 15 13 11 10 10 10 10 10 10 10 11 11 11 11 11 11 11 11 10 10 10 10 9 9 9 8 8
21 20 22 23 22 22 23 24 23 23 22 19 18 17 18 17 15 14 13 11 10 9 9 9 9 9 9 10 10 10 10 10 10 9 9 9 9 9 8 8 8 7 7 7
21 20 20 21 22 23 23 23 23 22 22 21 19 16 17 16 15 13 12 10 9 9 9 9 9 9 9 9 9 9 9 9 8 8 8 8 8 7 7 7 6 6 6 6
20 19 19 19 20 22 22 22 23 23 23 21 19 16 15 15 14 12 11 10 9 8 8 8 8 8 8 8 8 8 8 7 7 7 7 7 6 6 6 6 6 5 5 5
20 19 18 17 18 20 20 22 23 22 21 20 18 16 14 14 13 11 10 9 8 8 8 8 7 7 7 7 7 7 7 7 7 6 6 6 6 6 5 5 5 5 5 5
21 19 19 20 20 20 20 21 21 21 21 19 17 16 14 13 12 11 10 9 8 8 7 7 7 7 7 7 7 6 6 6 6 6 6 5 5 5 5 5 5 5 5 4
21 20 20 20 21 21 20 20 20 20 20 19 17 15 14 13 11 10 9 9 8 7 7 7 7 6 6 6 6 6 6 6 6 6 5 5 5 5 5 5 4 4 4 4
21 20 20 20 21 20 19 19 20 19 18 18 16 14 13 12 11 10 9 9 8 7 7 6 6 6 6 6 6 6 6 6 6 5 5 5 5 5 5 5 4 4 4 4
21 21 20 20 20 17 18 20 19 18 17 17 15 14 13 12 10 10 9 8 8 7 7 6 6 6 6 6 6 6 6 6 6 5 5 5 5 5 5 4 4 4 4 4
22 21 20 20 19 18 19 19 19 18 16 16 15 14 12 11 10 9 8 8 7 7 6 6 6 6 6 6 6 6 6 6 6 5 5 5 5 5 5 4 4 4 4 4
22 21 21 20 19 17 18 19 19 18 15 15 14 13 12 12 11 8 7 7 7 6 6 6 6 6 6 6 6 6 5 5 5 5 5 5 5 5 4 4 4 4 4 4
21 21 21 20 19 18 18 19 19 16 14 14 14 13 12 11 10 8 7 6 6 6 6 6 6 5 5 5 5 5 5 5 5 5 5 5 5 5 4 4 4 4 4 4
21 21 20 20 18 16 18 18 16 14 14 13 13 11 10 9 7 7 6 6 6 6 5 5 5 5 5 5 5 5 5 5 5 5 5 5 5 5 5 4 4 4 4 4
21 20 20 18 17 16 16 15 14 14 13 12 11 10 9 8 7 6 6 6 6 5 5 5 5 5 5 5 5 5 5 5 5 5 5 5 5 5 5 5 5 4 4 4
20 21 20 18 17 16 15 14 14 13 12 11 10 9 8 7 7 6 6 6 5 5 5 5 5 5 5 5 5 5 5 5 5 5 5 5 5 5 5 5 5 4 4 4
21 20 19 18 17 16 15 14 13 12 11 10 10 9 8 7 7 6 6 6 6 5 5 5 5 5 5 5 5 5 5 5 5 5 5 5 5 5 5 5 4 4 4 4
21 20 19 18 17 17 14 13 12 11 11 10 9 9 8 7 7 6 6 6 6 6 6 6 6 6 5 5 5 5 5 5 5 5 5 6 5 5 5 5 4 4 4 4
Wind_Speed
11 12 12 12 13 15 15 14 12 9 6 9 8 5 1 2 3 5 4 5 8 9 10 10 9 8 9 9 8 7 8 8 8 7 7 6 5 4 4 5 7 7 5 5
12 14 13 11 11 12 13 14 10 4 4 6 6 4 3 4 7 10 12 11 11 10 11 11 12 8 7 7 7 6 5 7 6 5 5 5 5 5 6 6 8 9 8 7
14 10 7 9 11 11 12 12 10 7 6 7 7 6 7 6 9 12 13 13 13 12 12 12 13 11 10 6 5 4 5 5 4 4 4 6 6 5 5 6 6 9 11 11
12 11 10 10 11 11 12 12 11 10 9 9 12 9 10 9 9 10 12 12 13 13 13 12 12 12 11 10 7 7 5 5 4 4 5 7 6 6 5 7 7 10 14 13
11 10 9 10 10 11 12 10 10 11 11 12 13 10 9 11 10 9 11 12 13 13 13 13 12 12 12 11 9 8 8 8 6 6 6 7 8 8 8 9 11 11 11 14
14 9 8 9 9 10 11 10 10 12 13 16 16 14 8 9 12 11 10 12 13 13 13 13 13 13 12 13 12 10 11 11 10 9 8 9 12 12 11 11 11 10 9 10
11 10 7 7 9 9 10 10 8 11 13 15 15 11 4 11 15 14 13 13 12 13 13 13 14 14 14 14 13 12 13 13 13 13 12 12 13 13 12 11 11 10 9 10
9 7 4 6 8 8 11 13 10 7 7 9 7 3 9 17 18 17 15 14 14 14 13 14 13 13 13 14 14 13 14 14 14 14 14 14 13 12 11 13 11 11 9 10
6 7 6 8 10 10 10 12 10 9 9 7 3 4 9 14 16 16 15 15 14 13 13 13 13 14 14 14 14 15 15 15 16 16 16 16 15 15 14 13 12 10 9 10
5 8 6 5 7 9 10 9 4 7 6 5 5 6 7 15 14 14 14 15 13 13 12 13 13 13 13 13 14 15 16 17 16 15 14 14 14 14 14 13 13 12 10 10
7 7 6 5 3 5 7 7 6 7 4 5 4 2 0 14 14 14 14 14 13 13 12 12 12 12 13 14 14 15 15 15 15 15 15 15 14 14 13 12 12 10 9 8
5 5 6 5 5 7 6 6 6 7 6 6 2 2 3 15 16 16 15 14 14 13 13 13 13 13 13 13 14 14 14 14 14 14 14 14 13 13 12 11 10 8 7 7
6 4 5 4 2 3 4 6 7 9 8 6 4 4 9 15 16 15 15 14 13 13 13 13 12 12 12 12 12 13 13 13 13 13 13 13 12 11 11 9 8 7 7 6
1 4 3 3 4 4 5 8 9 8 6 5 5 7 10 13 15 15 14 13 13 13 12 12 12 11 11 11 11 12 11 11 11 12 12 11 10 10 9 8 7 6 6 6
2 4 3 3 2 2 4 7 9 9 9 5 6 7 7 10 13 14 14 14 14 13 13 12 11 10 10 10 10 10 10 10 10 11 11 10 9 9 8 7 6 5 5 6
2 3 5 4 1 1 5 9 8 8 10 8 8 8 8 11 12 12 13 14 13 13 12 12 11 11 10 9 9 9 9 9 8 9 10 9 8 8 7 6 5 5 5 5
4 4 5 4 2 1 4 7 8 9 10 7 6 6 9 10 11 11 12 13 13 13 12 11 10 10 8 7 8 9 8 7 8 8 8 8 7 7 6 6 6 5 5 5
5 6 4 4 2 1 4 6 7 8 10 10 9 10 10 11 10 9 10 12 13 13 12 11 9 8 7 7 7 7 7 7 8 7 8 7 7 7 6 6 5 5 4 4
2 4 5 3 2 6 5 5 5 4 7 8 9 10 12 12 11 8 8 11 12 12 11 10 9 8 7 6 6 6 6 6 7 7 7 7 6 6 6 5 5 4 4 4
2 4 5 5 3 2 5 6 4 3 5 6 8 8 10 9 5 5 9 13 13 12 11 9 8 8 7 6 6 6 6 6 7 7 6 5 5 5 5 5 4 3 3 3
3 3 4 5 2 5 6 5 3 1 3 5 6 7 6 3 7 12 13 13 12 12 11 9 8 7 6 6 6 6 6 5 5 5 4 4 4 3 4 3 3 3 3 3
4 5 4 4 3 5 8 5 6 6 7 8 8 10 13 15 17 16 14 13 12 11 10 9 8 7 5 5 5 5 5 4 4 4 3 3 2 2 4 3 2 2 2 1
4 6 5 6 6 8 10 10 9 8 10 10 11 14 17 17 16 15 14 12 11 11 10 8 8 7 6 4 4 5 4 4 4 3 2 2 2 2 2 2 1 1 1 2
4 4 5 7 9 10 10 11 11 11 12 13 14 16 16 17 16 14 12 11 11 10 9 8 8 8 6 5 4 3 3 2 2 1 1 0 0 1 2 2 4 5 6 6
5 3 4 8 11 10 10 11 12 13 14 15 15 15 16 16 15 14 12 11 10 10 8 7 7 7 7 5 5 4 3 1 1 0 1 1 0 1 2 4 5 5 5 5
4 3 2 4 10 8 12 12 13 14 14 14 15 15 15 14 14 13 12 10 10 9 8 8 7 7 7 6 5 4 3 2 0 1 2 1 1 1 2 4 5 7 6 5
Wind_Direction
238 241 248 249 245 260 278 283 268 250 187 194 196 207 175 101 106 100 76 73 80 71 62 60 60 71 95 101 109 123 136 141 150 160 167 165 156 138 111 88 85 89 83 81
250 245 257 271 271 269 270 270 267 244 182 200 192 171 124 85 75 73 65 60 61 57 57 54 60 56 77 97 111 118 129 143 155 164 164 154 142 122 107 90 73 67 62 53
269 276 273 266 267 263 261 261 255 243 212 218 202 191 178 133 97 84 78 69 56 57 52 48 50 45 44 56 81 125 136 136 141 142 143 132 117 117 109 92 75 60 58 51
277 273 269 259 257 256 257 256 259 250 230 226 217 218 194 161 126 99 86 77 66 56 51 46 43 37 37 34 48 58 77 102 122 132 138 139 139 131 109 93 80 66 58 55
278 281 272 263 261 259 263 267 262 256 248 248 233 230 196 160 149 115 90 78 69 62 56 48 44 42 38 35 40 48 59 66 76 84 103 118 111 101 96 91 84 73 64 59
284 278 266 269 268 265 264 259 255 254 249 245 237 239 197 172 154 127 100 82 71 63 58 50 44 44 44 42 42 47 59 60 64 73 81 97 103 103 100 93 88 78 71 63
292 278 256 265 263 250 250 246 240 238 235 242 235 226 137 125 131 128 113 93 79 69 62 52 45 44 46 46 48 52 58 60 61 67 71 84 93 95 93 93 91 87 78 71
304 285 247 254 257 256 245 244 244 253 263 273 261 181 123 116 115 115 111 102 88 76 68 62 55 51 51 52 54 61 65 65 65 69 70 72 78 83 85 85 88 85 82 79
304 296 270 263 266 259 247 247 260 267 273 274 256 104 123 124 123 122 114 102 89 81 74 69 63 59 57 57 59 66 73 72 70 71 74 74 77 83 86 85 83 84 83 83
291 295 280 272 264 262 267 259 264 269 270 269 242 196 178 154 139 128 118 107 98 89 81 74 70 68 66 67 70 71 73 75 75 75 77 81 78 79 83 85 84 83 81 79
324 298 290 283 285 283 277 269 272 270 269 274 266 252 72 156 141 129 116 109 104 97 89 83 78 74 73 72 71 73 76 77 78 79 80 81 81 81 82 81 82 82 80 81
333 308 298 294 290 286 282 291 289 287 287 276 280 97 103 129 129 123 117 111 105 100 94 89 85 81 77 76 75 76 78 79 80 82 83 83 83 83 84 84 83 84 85 84
342 336 320 321 323 306 305 308 301 301 302 322 334 98 104 111 113 115 116 114 109 105 101 95 88 84 82 82 81 82 83 86 88 89 88 86 86 86 87 87 86 84 81 76
314 315 316 309 309 311 328 329 340 340 339 359 52 107 113 118 121 120 119 118 115 112 107 102 96 92 89 87 86 87 88 91 93 93 91 89 89 89 88 86 83 83 82 80
332 310 307 282 291 335 347 358 9 10 10 22 80 107 122 127 132 130 129 127 123 121 116 112 107 101 96 93 91 90 91 92 95 97 96 95 95 94 90 86 81 76 72 75
336 305 300 285 270 99 51 30 23 27 38 62 79 84 102 113 119 126 133 133 130 128 124 119 114 109 102 99 98 96 96 95 94 95 97 98 98 97 96 95 86 75 67 61
310 307 305 293 238 193 64 35 33 39 36 38 64 97 113 114 122 135 139 135 132 131 128 123 118 113 109 104 104 103 99 100 99 100 101 100 98 95 91 87 83 76 70 64
317 318 303 290 302 42 80 57 61 62 60 65 90 114 115 110 109 114 132 136 135 132 128 125 120 115 110 104 103 104 106 108 106 104 101 100 95 89 84 76 72 67 62 61
314 308 304 311 10 109 99 52 34 59 76 76 101 112 116 115 104 95 110 121 125 126 124 121 119 117 114 111 111 110 108 106 103 97 91 87 84 81 77 72 65 54 47 51
226 260 287 313 344 63 69 39 40 103 100 86 108 122 135 144 128 120 115 114 115 115 116 117 116 115 115 115 113 107 103 98 96 92 89 84 74 70 65 58 50 45 41 44
286 274 302 326 44 86 36 9 344 5 103 100 112 124 134 118 106 124 120 115 116 117 117 117 113 112 111 107 104 102 100 97 96 94 90 85 82 85 84 66 41 24 38 45
333 341 356 348 35 67 14 28 53 81 98 102 107 111 109 106 112 119 121 121 122 121 122 124 120 116 115 117 116 109 105 103 100 95 89 80 57 41 70 68 42 22 7 354
37 33 29 47 76 82 65 77 90 99 103 104 109 116 119 119 121 122 124 126 127 128 130 132 130 128 127 123 119 114 112 108 100 87 75 65 52 48 43 14 4 10 10 7
112 84 109 112 110 103 95 93 94 97 102 109 115 120 122 122 124 125 125 126 130 132 137 139 139 135 130 125 119 122 123 108 110 113 114 151 117 94 71 20 21 36 28 17
97 124 114 115 126 119 107 104 105 104 107 112 117 121 123 126 128 130 131 136 139 141 144 146 142 138 139 142 139 140 137 119 82 18 281 274 170 98 94 77 49 49 64 53
93 99 135 140 149 138 127 121 119 118 118 119 121 121 125 129 132 133 134 136 139 141 142 142 144 144 144 147 149 152 155 148 108 293 304 300 221 146 133 137 116 63 86 102
Height
1477 1477 1474 1467 1463 1462 1458 1458 1455 1448 1444 1452 1458 1461 1461 1462 1463 1467 1470 1471 1475 1479 1481 1483 1483 1486 1492 1496 1499 1504 1507 1510 1514 1519 1523 1526 1529 1532 1535 1537 1539 1541 1543 1545
1473 1471 1465 1460 1458 1459 1459 1460 1456 1450 1448 1453 1459 1464 1465 1467 1470 1473 1475 1478 1481 1484 1485 1486 1486 1490 1493 1496 1499 1503 1506 1509 1512 1517 1521 1524 1527 1530 1532 1534 1536 1538 1540 1542
1470 1465 1461 1462 1462 1462 1461 1460 1457 1457 1453 1455 1460 1469 1469 1470 1474 1478 1482 1485 1487 1488 1489 1490 1492 1495 1495 1497 1500 1503 1505 1508 1511 1514 1518 1522 1524 1527 1529 1531 1533 1535 1537 1538
1465 1461 1460 1461 1462 1461 1463 1454 1454 1456 1460 1464 1462 1477 1472 1471 1476 1482 1487 1489 1490 1492 1493 1494 1495 1496 1496 1497 1499 1502 1504 1507 1509 1513 1515 1518 1521 1524 1526 1528 1531 1532 1534 1536
1464 1460 1460 1462 1459 1458 1457 1452 1454 1456 1460 1462 1460 1470 1475 1471 1479 1485 1490 1493 1495 1496 1496 1497 1497 1497 1496 1498 1500 1502 1504 1505 1508 1511 1513 1516 1519 1522 1524 1526 1528 1530 1532 1534
1461 1459 1459 1459 1456 1455 1454 1455 1456 1457 1460 1471 1462 1466 1475 1474 1479 1487 1493 1495 1497 1498 1499 1500 1500 1499 1498 1500 1501 1503 1504 1505 1507 1510 1512 1514 1517 1520 1522 1524 1527 1528 1530 1532
1467 1460 1457 1458 1458 1456 1456 1463 1474 1475 1471 1466 1449 1459 1478 1473 1479 1488 1495 1499 1500 1501 1501 1502 1502 1502 1502 1502 1503 1504 1505 1507 1508 1510 1512 1514 1516 1519 1522 1524 1526 1528 1529 1531
1479 1474 1462 1459 1460 1460 1457 1460 1475 1486 1481 1466 1453 1466 1481 1479 1485 1492 1497 1500 1503 1504 1505 1505 1506 1506 1506 1506 1506 1506 1507 1509 1510 1512 1514 1515 1517 1519 1522 1524 1527 1528 1529 1531
1481 1476 1461 1458 1456 1454 1458 1456 1455 1468 1475 1481 1474 1482 1486 1485 1490 1495 1500 1502 1504 1506 1507 1508 1509 1509 1510 1510 1509 1510 1510 1511 1513 1514 1516 1517 1519 1521 1523 1526 1528 1529 1531 1532
1473 1475 1461 1457 1455 1453 1452 1452 1460 1467 1481 1489 1481 1482 1486 1489 1493 1498 1502 1504 1507 1509 1511 1512 1512 1513 1513 1513 1513 1513 1514 1514 1516 1518 1519 1521 1522 1524 1526 1528 1530 1531 1533 1534
1470 1476 1467 1461 1462 1462 1459 1456 1458 1461 1466 1483 1491 1492 1479 1483 1492 1499 1504 1507 1510 1512 1513 1515 1515 1516 1517 1517 1517 1518 1518 1519 1520 1522 1523 1524 1525 1527 1529 1531 1532 1534 1536 1537
1473 1475 1475 1467 1462 1458 1457 1457 1459 1468 1466 1465 1476 1497 1481 1483 1493 1501 1507 1511 1513 1515 1516 1518 1519 1520 1521 1521 1521 1522 1523 1524 1525 1526 1527 1528 1530 1531 1533 1535 1536 1538 1540 1540
1476 1480 1485 1479 1474 1465 1462 1458 1457 1456 1457 1466 1478 1497 1489 1491 1499 1506 1510 1514 1516 1518 1520 1521 1523 1524 1525 1526 1526 1527 1528 1529 1530 1531 1532 1533 1534 1536 1537 1539 1540 1542 1543 1543
1477 1481 1489 1494 1485 1475 1471 1463 1458 1459 1467 1474 1482 1493 1496 1498 1503 1509 1513 1516 1519 1521 1523 1524 1526 1528 1529 1530 1531 1532 1533 1534 1535 1536 1537 1538 1539 1541 1542 1543 1545 1546 1546 1547
1476 1481 1479 1477 1472 1471 1472 1469 1466 1468 1469 1478 1486 1492 1498 1501 1505 1509 1514 1518 1521 1523 1525 1527 1529 1531 1532 1534 1535 1536 1538 1539 1540 1541 1542 1543 1544 1545 1546 1547 1548 1548 1549 1549
1474 1478 1477 1475 1470 1471 1474 1474 1474 1474 1476 1481 1487 1498 1501 1504 1508 1513 1516 1519 1522 1525 1527 1529 1532 1534 1535 1537 1539 1540 1542 1543 1545 1545 1546 1547 1548 1549 1550 1550 1551 1551 1551 1551
1471 1475 1478 1478 1470 1474 1484 1481 1480 1483 1484 1485 1494 1503 1505 1507 1511 1515 1518 1520 1523 1526 1529 1531 1533 1536 1538 1540 1542 1544 1546 1547 1548 1549 1550 1551 1552 1552 1553 1554 1553 1553 1553 1553
1474 1474 1474 1475 1477 1493 1491 1481 1483 1487 1491 1493 1498 1503 1507 1510 1514 1517 1520 1521 1524 1528 1530 1533 1536 1538 1541 1543 1545 1547 1549 1550 1552 1553 1554 1555 1555 1555 1555 1555 1555 1555 1555 1554
1472 1474 1475 1476 1482 1488 1487 1484 1485 1490 1497 1499 1502 1506 1510 1513 1516 1521 1523 1524 1527 1529 1532 1535 1538 1541 1544 1546 1548 1550 1552 1553 1555 1556 1557 1558 1558 1558 1557 1557 1557 1557 1556 1555
1470 1471 1474 1474 1486 1496 1493 1486 1487 1492 1503 1504 1505 1508 1511 1513 1516 1525 1526 1527 1529 1532 1535 1538 1541 1543 1546 1549 1551 1553 1554 1556 1557 1558 1559 1560 1560 1559 1559 1559 1558 1558 1557 1557
1473 1471 1474 1475 1483 1491 1490 1488 1488 1499 1507 1506 1507 1510 1512 1514 1517 1524 1527 1529 1532 1535 1538 1541 1543 1546 1549 1551 1553 1555 1557 1558 1559 1560 1561 1561 1561 1561 1561 1560 1559 1559 1558 1557
1473 1474 1475 1477 1487 1501 1494 1490 1497 1505 1505 1507 1510 1512 1514 1517 1521 1525 1529 1532 1535 1538 1541 1544 1546 1549 1551 1553 1555 1557 1559 1560 1561 1562 1563 1563 1563 1563 1562 1561 1561 1560 1559 1558
1474 1481 1480 1488 1498 1500 1499 1501 1504 1505 1508 1510 1512 1515 1517 1521 1525 1529 1533 1536 1539 1541 1544 1547 1549 1551 1554 1556 1558 1559 1561 1562 1563 1563 1564 1564 1564 1563 1563 1562 1562 1561 1560 1559
1478 1479 1483 1490 1497 1500 1503 1505 1507 1509 1511 1513 1516 1519 1522 1525 1529 1533 1536 1539 1542 1544 1547 1549 1552 1554 1556 1558 1560 1561 1562 1563 1564 1564 1564 1564 1564 1564 1564 1563 1563 1562 1560 1559
1476 1480 1483 1491 1498 1502 1505 1508 1510 1512 1515 1517 1520 1523 1526 1528 1532 1536 1539 1542 1545 1547 1550 1552 1554 1556 1558 1560 1561 1563 1564 1564 1565 1565 1565 1565 1565 1565 1564 1563 1563 1561 1560 1559
1476 1480 1484 1488 1494 1498 1506 1510 1512 1515 1518 1521 1523 1527 1530 1532 1535 1539 1542 1545 1547 1550 1552 1554 1556 1558 1560 1561 1563 1564 1565 1565 1566 1566 1565 1565 1565 1565 1564 1563 1563 1562 1561 1560